Location: Stuttgart
(48.8069°N, 9.1544°E)
Time: 12:34:13
(UTC+01:00)

ISS - Pass Details

Date: 09 January 2018
Orbit: 402 x 407 km, 51.6° (Epoch: 19 January)

Event Time Altitude Azimuth Distance (km) Brightness Sun altitude
Exits shadow 07:21:29 12° 287° (WNW) 1,368 -1.8 -8.5°
Maximum altitude 07:24:29 62° 207° (SSW) 461 -3.6 -8.1°
Drops below altitude 10° 07:27:45 10° 125° (SE) 1,465 0.6 -7.6°
Sets 07:29:50 0° 122° (ESE) 2,324 2.4 -7.3°
